465824 (2010 FR) |
Classification: Apollo [NEO, PHA] SPK-ID: 2465824 |
[ hide orbit diagram ]
For accurate long-term ephemerides, please instead use our Horizons system.This orbit viewer was implemented using two-body methods, and hence should not be used for determining accurate long-term trajectories (over several years or decades) or planetary encounter circumstances.
Orbital Elements at Epoch 2459200.5 (2020-Dec-17.0) TDB
Reference: JPL 58 (heliocentric ecliptic J2000)
Element | Value | Uncertainty (1-sigma) | Units |
e | .3652959401519194 | 4.7114e-08 | |
a | 1.1310780866608 | 2.8732e-09 | au |
q | .7178998536088089 | 5.5042e-08 | au |
i | 14.24339617652898 | 9.5466e-06 | deg |
node | 167.2836536464671 | 1.2614e-05 | deg |
peri | 272.7253378446648 | 6.2607e-06 | deg |
M | 31.47110697892552 | 6.0703e-06 | deg |
tp | 2459162.089777040222 (2020-Nov-08.58977704) | 7.3756e-06 | TDB |
period | 439.3769902908022 1.20 | 1.6742e-06 4.584e-09 | d yr |
n | .8193419499772475 | 3.122e-09 | deg/d |
Q | 1.544256319712791 | 3.9228e-09 | au |
|
| | Orbit Determination Parameters
Additional Information
|
[ show covariance matrix ]
Physical Parameter Table
Parameter |
Symbol |
Value |
Units |
Sigma |
Reference |
Notes |
absolute magnitude |
H |
21.7 |
|
n/a |
MPO380312 |
|
|
465824 (2010 FR) Discovered 2010-Mar-18 by CSS at Catalina |
Reference: | Last Updated: 2016-04-25 |
|
[ show close-approach data ]
|